COSMOS 1637

Satellite information

Favourite Embed

Satellite Type and Status

PAYLOADIN ORBIT

Key statistics

Satellite COSMOS 1637 at a glance.

Uptime

14877

Days in orbit

Revolutions

≈ 12.5

Per day

Orbit

LEO

Low Earth Orbit

Inclination

74.1

Latest

Satellite identification and parameters

Extended collection of information and parameters for COSMOS 1637.

Object identification

Identified? True

Debris? False

Object name: COSMOS 1637

International designator: 1985-023C

Object number (NORAD): 15619

Object ID (CCSDS): 15619

Country: COMMONWEALTH OF INDEPENDENT STATES (CIS)

Current information (Y/N): Y

RCS size: MEDIUM

Orbital parameters

Period: 115.455 minutes

Inclination: 74.0564 deg

SMA: 7854.195 km

Apoapsis: 1488.318 km

Periapsis: 1463.802 km

RAAN: 356.2787 deg

Eccentricy: 0.00156067

Argument of periapsis: 214.6261 deg

Mean anomaly: 214.8796 deg

Mean motion: 12.47240659 rev/day

Mean motion (dot): -0.00000005 rev/day2

B* drag term: 0.000074592308 1/REarth

Two-line elements (TLE)

Creation date: Dec. 12, 2025, 10:14 a.m.

Reference frame: TEME

Reference center: EARTH

Epoch: Dec. 12, 2025, 4:35 a.m. UTC

TLE line 0: 0 COSMOS 1637

TLE line 1: 1 15619U 85023C 25346.19152802 -.00000005 00000-0 74592-4 0 9995

TLE line 2: 2 15619 74.0564 356.2787 0015607 214.6261 214.8796 12.47240659854463

Live tracking on map

Real-time ground track for satellite COSMOS 1637.

In-orbit conjunctions

There are no conjunctions computed for COSMOS 1637, at the moment. Check back to stay up to date, as we update our databases every day.

Go to all conjunctions

Associated space launch

Military communications satellites

COSMOS 1637 was lifted into orbit during the mission ‘Kosmos-3M | Strela-1M 289-296’, on board a Kosmos-3M space rocket.

The launch took place on March 21, 1985, 12:08 a.m. from 132/2.

For more information about the launch, click the button.

Launch to space Kosmos-3M | Strela-1M 289-296
Kosmos-3M | Strela-1M 289-296

Agency: N/A

Status: Launch Successful

Launch date: March 21, 1985, 12:08 a.m. UTC

Rocket: Kosmos-3M

Launch pad: 132/2

Location: Plesetsk Cosmodrome, Russian Federation

...

Latest news about this satellite

There are no fresh news available about this satellite. Check back as we update our databases every day.


Newsletter sign-up

Weekly statistics, charts and insights to help you stay on top of the space industry.